User: anonymous   Login
Location: Oshawa
(43.9000°N, 78.8670°W)
Time: 02:03:48
(UTC-04:00)
Language:

Cosmos 1953 Rocket - Orbit

View from above orbital plane
View from above orbital plane
View from above satellite
View from above satellite

Ground track
Ground track

The orbit data is extracted from the following two-line orbital elements,

1 19211U 88050B   16243.13981130  .00000118  00000-0  11614-4 0  9994
2 19211  82.5260 114.6258 0021902   0.6699 165.0885 14.82914088523659
Epoch (UTC): 30 August 2016 03:21:19
Eccentricity: 0.0021902
inclination: 82.5260°
perigee height: 605 km
apogee height: 635 km
right ascension of ascending node: 114.6258°
argument of perigee: 0.6699°
revolutions per day: 14.82914088
mean anomaly at epoch: 165.0885°
orbit number at epoch: 52365

The dashed part of the orbit path shows where the satellite is in the earth's shadow,  

DLR